Marshall, TX

4:48 AM CDT on April 29, 2017 (GMT -0500)
Harrison County

Weather History for KASL - September, 2013

Change the Weather History Date:

Saturday, September 28, 2013

  Actual Average (KGGG) Record (KGGG)
Temperature  
Mean Temperature 78 °F -  
Max Temperature 90 °F 82 °F 100 °F (1938)
Min Temperature 66 °F 58 °F 44 °F (1908)
Cooling Degree Days 13    
Growing Degree Days 28 (Base 50)    
Moisture  
Dew Point 67 °F    
Average Humidity 75    
Maximum Humidity 92    
Minimum Humidity 47    
Precipitation  
Precipitation 1.52 in - - ()
Sea Level Pressure  
Sea Level Pressure 30.00 in    
Wind  
Wind Speed 3 mph (SSE)    
Max Wind Speed 13 mph    
Max Gust Speed 17 mph    
Visibility 9 miles    
Events      
Averages and records for this station are not official NWS values.
T = Trace of Precipitation, MM = Missing Value Source: NWS Daily Summary

Daily Weather History Graph

Daily Weather History Graph

Search for Another Location

Airport or City:

Trip Planner

Search our weather history database for the weather conditions in past years. The results will help you decide how hot, cold, wet, or windy it might be!

Date:

Astronomy

Sep. 28, 2013 Rise Set
Actual Time 7:09 AM CDT 7:05 PM CDT
Civil Twilight 6:44 AM CDT 7:30 PM CDT
Nautical Twilight 6:16 AM CDT 7:58 PM CDT
Astronomical Twilight 5:47 AM CDT 8:27 PM CDT
Moon 1:14 AM CDT (9/28) 3:09 PM CDT (9/28)
Length of Visible Light 12h 45m
Length of Day
11h 56m
Waning Crescent, 36% of the Moon is Illuminated
Sep 28
Waning Crescent
Oct 4
New
Oct 11
First Quarter
Oct 18
Full
Oct 26
Last Quarter

Hourly Weather History & Observations

Time (CDT) Temp. Heat Index Dew Point Humidity Pressure Visibility Wind Dir Wind Speed Gust Speed Precip Events Conditions
12:15 AM 75.6 °F - 62.6 °F 64% 29.97 in 10.0 mi SSE 3.5 mph - N/A   Clear
12:35 AM 73.8 °F - 61.7 °F 66% 29.97 in 10.0 mi Calm Calm - N/A   Clear
12:55 AM 73.0 °F - 61.2 °F 66% 29.96 in 10.0 mi Calm Calm - N/A   Clear
1:15 AM 73.0 °F - 61.7 °F 67% 29.96 in 10.0 mi Calm Calm - N/A   Clear
1:35 AM 73.0 °F - 62.4 °F 69% 29.96 in 10.0 mi Calm Calm - N/A   Clear
1:55 AM 72.9 °F - 62.8 °F 71% 29.96 in 10.0 mi Calm Calm - N/A   Clear
2:15 AM 71.8 °F - 62.4 °F 72% 29.97 in 10.0 mi Calm Calm - N/A   Clear
2:35 AM 70.7 °F - 61.7 °F 73% 29.97 in 10.0 mi Calm Calm - N/A   Clear
2:55 AM 70.7 °F - 63.5 °F 78% 29.97 in 10.0 mi Calm Calm - N/A   Clear
3:15 AM 69.8 °F - 64.0 °F 82% 29.98 in 10.0 mi Calm Calm - N/A   Clear
3:35 AM 68.2 °F - 62.8 °F 83% 29.98 in 7.0 mi Calm Calm - N/A   Clear
3:55 AM 68.2 °F - 63.3 °F 84% 29.98 in 10.0 mi Calm Calm - N/A   Clear
4:15 AM 68.2 °F - 63.5 °F 85% 29.98 in 10.0 mi Calm Calm - N/A   Clear
4:35 AM 67.1 °F - 62.6 °F 85% 29.98 in 7.0 mi Calm Calm - N/A   Clear
4:55 AM 66.2 °F - 62.1 °F 86% 29.98 in 10.0 mi Calm Calm - N/A   Scattered Clouds
5:15 AM 67.1 °F - 62.8 °F 86% 29.99 in 7.0 mi Calm Calm - N/A   Scattered Clouds
5:35 AM 66.7 °F - 62.8 °F 87% 29.99 in 7.0 mi Calm Calm - N/A   Mostly Cloudy
5:55 AM 68.2 °F - 63.5 °F 85% 30.00 in 10.0 mi Calm Calm - N/A   Overcast
6:15 AM 70.7 °F - 65.7 °F 84% 30.01 in 10.0 mi Calm Calm - N/A   Overcast
6:35 AM 70.7 °F - 66.2 °F 86% 30.01 in 10.0 mi Calm Calm - N/A   Overcast
6:55 AM 70.7 °F - 66.2 °F 86% 30.02 in 10.0 mi Calm Calm - N/A   Overcast
7:15 AM 70.7 °F - 66.2 °F 86% 30.02 in 10.0 mi Calm Calm - N/A   Overcast
7:35 AM 70.7 °F - 66.2 °F 86% 30.02 in 10.0 mi Calm Calm - N/A   Overcast
7:55 AM 70.7 °F - 66.2 °F 86% 30.03 in 10.0 mi Calm Calm - N/A   Overcast
8:15 AM 70.7 °F - 66.0 °F 85% 30.03 in 10.0 mi SSE 3.5 mph - N/A   Overcast
8:35 AM 70.9 °F - 66.0 °F 85% 30.03 in 10.0 mi SSE 3.5 mph - N/A   Overcast
8:55 AM 73.0 °F - 68.0 °F 84% 30.04 in 10.0 mi SSE 3.5 mph - N/A   Overcast
9:15 AM 73.0 °F - 67.3 °F 82% 30.04 in 10.0 mi South 3.5 mph - N/A   Overcast
9:35 AM 75.6 °F - 68.4 °F 78% 30.04 in 10.0 mi South 6.9 mph - N/A   Mostly Cloudy
9:55 AM 77.9 °F - 68.4 °F 72% 30.05 in 10.0 mi SSW 6.9 mph - N/A   Overcast
10:15 AM 79.9 °F - 67.6 °F 66% 30.05 in 10.0 mi South 10.4 mph - N/A   Overcast
10:35 AM 80.2 °F 82.8 °F 67.8 °F 66% 30.05 in 10.0 mi South 11.5 mph 16.1 mph N/A   Mostly Cloudy
10:55 AM 83.3 °F 87.1 °F 69.4 °F 63% 30.04 in 10.0 mi South 12.7 mph 17.3 mph N/A   Scattered Clouds
11:15 AM 84.6 °F 88.5 °F 69.3 °F 60% 30.04 in 10.0 mi SSE 11.5 mph 16.1 mph N/A   Scattered Clouds
11:35 AM 84.6 °F 87.9 °F 68.5 °F 58% 30.04 in 10.0 mi South 8.1 mph - N/A   Scattered Clouds
11:55 AM 85.6 °F 89.1 °F 68.2 °F 56% 30.04 in 10.0 mi SE 6.9 mph - N/A   Scattered Clouds
12:15 PM 85.6 °F 88.5 °F 67.3 °F 54% 30.03 in 10.0 mi SSW 8.1 mph - N/A   Scattered Clouds
12:35 PM 85.6 °F 88.5 °F 67.1 °F 54% 30.02 in 10.0 mi SE 3.5 mph - N/A   Clear
12:55 PM 85.8 °F 87.4 °F 64.4 °F 49% 30.01 in 10.0 mi SSW 10.4 mph - N/A   Clear
1:15 PM 87.4 °F 89.5 °F 65.5 °F 48% 30.01 in 10.0 mi South 9.2 mph - N/A   Scattered Clouds
1:35 PM 88.5 °F 91.2 °F 66.7 °F 48% 30.00 in 10.0 mi South 9.2 mph - N/A   Mostly Cloudy
1:55 PM 89.8 °F 93.3 °F 67.5 °F 48% 29.98 in 10.0 mi South 9.2 mph - N/A   Scattered Clouds
2:15 PM 90.7 °F 94.5 °F 67.6 °F 47% 29.97 in 10.0 mi SSE 8.1 mph - N/A   Clear
2:35 PM 90.3 °F 94.3 °F 68.2 °F 48% 29.97 in 10.0 mi South 9.2 mph - N/A   Mostly Cloudy
2:55 PM 88.2 °F 91.3 °F 67.5 °F 50% 29.96 in 10.0 mi South 5.8 mph - N/A   Overcast
3:15 PM 87.3 °F 90.2 °F 67.3 °F 51% 29.95 in 10.0 mi SSE 6.9 mph - N/A   Overcast
3:35 PM 86.0 °F 88.8 °F 66.9 °F 53% 29.95 in 10.0 mi SE 4.6 mph - N/A   Overcast
3:55 PM 85.6 °F 89.1 °F 68.2 °F 56% 29.94 in 10.0 mi SSE 4.6 mph - N/A   Overcast
4:15 PM 85.6 °F 88.8 °F 68.0 °F 55% 29.94 in 10.0 mi SSE 4.6 mph - N/A   Overcast
4:35 PM 85.6 °F 89.4 °F 68.9 °F 57% 29.94 in 10.0 mi SSE 3.5 mph - N/A   Overcast
4:55 PM 85.6 °F 89.7 °F 69.4 °F 58% 29.94 in 10.0 mi Calm Calm - N/A   Overcast
5:15 PM 85.6 °F 91.1 °F 71.1 °F 62% 29.94 in 10.0 mi Calm Calm - N/A   Overcast
5:35 PM 84.0 °F 90.2 °F 72.9 °F 69% 29.95 in 1.5 mi NW 8.1 mph - 0.08 in   Overcast
5:55 PM 75.6 °F - 72.1 °F 89% 29.98 in 0.2 mi NW 6.9 mph 12.7 mph 0.63 in   Overcast
6:15 PM 75.6 °F - 72.7 °F 91% 29.98 in 4.0 mi NNW 9.2 mph - 0.20 in   Mostly Cloudy
6:35 PM 75.6 °F - 72.7 °F 91% 30.00 in 1.2 mi North 9.2 mph - 0.39 in   Overcast
6:55 PM 75.4 °F - 72.7 °F 91% 30.00 in 5.0 mi NNE 3.5 mph - 0.41 in   Overcast
7:15 PM 74.1 °F - 71.4 °F 91% 29.99 in 5.0 mi NE 3.5 mph - 0.03 in   Mostly Cloudy
7:35 PM 73.9 °F - 71.2 °F 91% 30.01 in 7.0 mi NNW 12.7 mph - 0.05 in   Overcast
7:55 PM 73.0 °F - 70.2 °F 91% 30.02 in 7.0 mi North 8.1 mph - 0.11 in   Overcast
8:15 PM 73.0 °F - 70.0 °F 90% 30.03 in 1.0 mi NNW 6.9 mph - 0.23 in   Overcast
8:35 PM 72.5 °F - 69.6 °F 91% 30.03 in 5.0 mi North 4.6 mph - 0.34 in   Overcast
8:55 PM 73.0 °F - 70.2 °F 91% 30.03 in 7.0 mi ENE 3.5 mph - 0.36 in   Overcast
9:15 PM 73.0 °F - 70.3 °F 91% 30.03 in 7.0 mi East 3.5 mph - N/A   Overcast
9:35 PM 73.0 °F - 70.5 °F 92% 30.03 in 10.0 mi East 4.6 mph - 0.01 in   Scattered Clouds
9:55 PM 72.9 °F - 70.5 °F 92% 30.01 in 10.0 mi ESE 3.5 mph - 0.01 in   Scattered Clouds
10:15 PM 72.9 °F - 70.5 °F 92% 30.03 in 10.0 mi Calm Calm - N/A   Overcast
10:35 PM 73.0 °F - 70.7 °F 92% 30.03 in 10.0 mi Calm Calm - N/A   Overcast
10:55 PM 73.0 °F - 70.7 °F 92% 30.04 in 10.0 mi ESE 3.5 mph - N/A   Overcast
11:15 PM 73.0 °F - 70.7 °F 92% 30.04 in 10.0 mi Calm Calm - N/A   Overcast
11:35 PM 73.0 °F - 70.7 °F 92% 30.03 in 10.0 mi Calm Calm - N/A   Overcast
11:55 PM 73.0 °F - 70.7 °F 92% 30.03 in 10.0 mi ESE 3.5 mph - N/A   Overcast